Home > Weather > Belo Horizonte > Past weeks

Flag for Brazil Past Weather in Belo Horizonte, Minas Gerais, Brazil — Yesterday and Last 2 Weeks

Now
68 °F

Passing clouds.


Feels Like: 68 °F
Forecast: 56 / 79 °F
Wind: 6 mph from North

Location: Belo Horizonte Airport

Current Time: May 29, 2016 at 10:40:08 AM

Latest Report: May 29, 2016 at 10:00 AM


Visibility: N/A

Pressure: 30.21 "Hg (27.33 "Hg at 860m altitude)

Humidity: 64%

Dew Point: 55 °F

Location of Belo HorizonteLocation

Past Weather in Belo Horizonte — Graph

°F

Belo Horizonte Temperature Yesterday

Maximum temperature yesterday: 72 °F (at 1:00 PM)
Minimum temperature yesterday: 59 °F (at 4:00 AM)
Average temperature yesterday: 65 °F

High & Low Weather Summary for the Past Weeks

 TemperatureHumidityPressure
High84 °F (May 18, 2:00 PM)100% (May 17, 6:00 AM)30.33 "Hg (May 17, 6:00 AM)
Low55 °F (May 29, 5:00 AM)37% (May 18, 4:00 PM)30.01 "Hg (May 17, 3:00 PM)
Average68 °F73%30.18 "Hg
* Reported May 14 9:00 AM — May 29 9:00 AM, Belo Horizonte, Weather by CustomWeather, © 2016

Note: Actual official high and low records may vary slightly from our data, if they occured in-between our weather recording intervals... More about our weather records

Advertising

Belo Horizonte Weather History for the Previous 24 Hours

Scroll right to see more
 ConditionsComfort  
Time TempWeatherWind HumidityBarometerVisibility
9:00 AM
Sun, May 29
63 °FSunny.2 mph83%30.21 "Hg10 mi
8:00 AM57 °FSunny.3 mph94%30.21 "Hg10 mi
7:00 AM57 °FSunny.5 mph94%30.18 "Hg10 mi
6:00 AM55 °FPassing clouds.3 mph94%30.18 "HgN/A
5:00 AM55 °FPassing clouds.5 mph94%30.18 "HgN/A
4:00 AM57 °FPassing clouds.2 mph94%30.18 "HgN/A
3:00 AM57 °FPassing clouds.2 mph94%30.18 "HgN/A
2:00 AM59 °FPassing clouds.8 mph88%30.18 "HgN/A
1:00 AM61 °FPassing clouds.8 mph83%30.18 "HgN/A
12:00 AM59 °FClear.6 mph88%30.21 "Hg10 mi
11:00 PM
Sat, May 28
59 °FClear.5 mph88%30.21 "Hg10 mi
10:00 PM61 °FClear.3 mph83%30.24 "Hg10 mi
9:00 PM64 °FClear.7 mph73%30.21 "Hg10 mi
8:00 PM64 °FClear.6 mph78%30.21 "Hg10 mi
7:00 PM64 °FClear.7 mph73%30.21 "Hg10 mi
6:00 PM68 °FClear.7 mph64%30.18 "Hg10 mi
5:00 PM70 °FPartly sunny.8 mph57%30.18 "HgN/A
4:00 PM72 °FScattered clouds.9 mph53%30.18 "HgN/A
3:00 PM72 °FPassing clouds.10 mph53%30.18 "HgN/A
2:00 PM72 °FPassing clouds.10 mph53%30.18 "HgN/A
1:00 PM72 °FPassing clouds.8 mph57%30.21 "HgN/A
12:00 PM70 °FSunny.10 mph60%30.24 "Hg10 mi
11:00 AM70 °FSunny.10 mph60%30.27 "Hg10 mi
10:00 AM68 °FSunny.12 mph64%30.27 "Hg10 mi
Weather by CustomWeather, © 2016

See weather overviewHow to use our weather pages